Dewpoint
35 36 37 37 38 38 39 39 39 39 39 39 38 38 38 38 38 37 37 37 37 36 36 36 36 36 36 36 36 36 36 36 36 37 38 38 37 36 36 36 36 36 36 37 37 37 37 37 38 38 38 38 38 38 37 37 37 36 36 36 36 36 36 35 35 35 35 35 35
35 35 35 36 36 37 37 38 38 39 39 38 38 38 38 38 37 37 37 36 36 36 36 36 36 36 36 36 36 36 36 36 36 36 37 36 36 36 36 36 36 36 36 36 36 36 36 36 36 37 37 37 37 37 37 37 37 37 36 36 36 36 36 36 36 36 35 35 35
34 34 35 35 36 36 36 37 37 37 37 37 38 37 37 37 37 36 36 36 36 36 36 36 36 35 35 35 36 36 36 36 36 36 36 36 36 36 36 36 36 36 36 35 35 35 35 35 36 36 36 36 36 36 37 37 37 37 37 36 37 37 36 36 36 36 36 36 36
33 34 34 35 36 36 36 36 36 36 36 37 37 36 36 36 36 36 36 36 36 36 35 35 35 34 34 35 35 35 36 36 36 36 36 36 35 35 35 35 35 35 35 34 34 34 34 34 34 35 35 35 35 35 36 36 36 37 37 37 37 37 36 36 36 36 36 36 36
33 34 35 35 36 36 36 36 36 36 36 36 36 36 36 36 36 36 36 35 35 35 35 35 34 34 34 35 35 35 35 36 37 37 36 35 35 35 35 35 34 34 34 33 33 33 33 33 33 33 33 33 34 34 34 35 35 36 36 36 37 37 37 36 36 36 36 36 36
34 34 34 35 35 36 36 36 36 36 36 36 36 36 36 36 36 35 35 35 35 35 35 36 36 36 35 35 35 35 35 35 35 35 34 34 34 34 34 33 33 33 33 33 32 32 32 32 33 33 33 33 32 32 33 33 34 34 35 35 36 36 36 36 36 36 36 36 36
34 34 34 34 34 35 35 36 36 36 36 36 36 36 35 35 35 35 34 34 34 35 35 35 35 35 34 34 34 34 34 34 33 33 33 33 33 33 32 32 32 32 32 32 32 32 32 32 32 32 33 33 33 32 32 32 33 33 33 34 34 35 35 36 36 36 36 36 36
34 34 34 34 34 34 35 36 36 36 36 36 36 35 35 35 34 34 34 34 34 34 34 34 33 33 33 33 32 32 32 31 31 31 31 32 31 31 31 31 31 31 31 31 31 31 31 31 32 32 32 32 32 32 31 31 32 32 32 33 34 34 34 35 35 35 35 35 35
34 34 34 34 35 35 36 36 36 36 36 36 36 35 35 35 35 34 34 33 34 33 33 32 32 32 31 31 31 31 30 30 29 29 29 30 30 29 29 29 30 30 30 30 30 30 31 31 31 31 31 32 32 31 31 31 31 31 32 32 33 33 34 34 34 34 34 35 35
33 33 34 34 35 35 36 36 36 36 36 36 36 35 36 37 36 35 34 33 33 32 32 31 31 31 30 30 29 29 29 28 28 28 28 28 28 28 28 28 29 29 29 29 29 30 30 31 31 31 31 31 31 31 31 31 32 32 32 33 33 33 33 33 33 34 34 35 35
33 33 33 33 34 35 35 35 36 36 36 35 35 35 35 35 35 34 33 32 31 31 31 30 30 29 29 28 28 28 28 28 27 27 27 27 27 27 27 28 28 28 28 28 29 29 30 30 30 30 31 31 31 31 31 31 31 32 32 32 32 33 33 33 33 34 34 35 35
32 32 32 32 32 33 34 34 34 34 34 34 34 33 33 32 32 32 32 31 30 30 29 29 29 28 28 28 28 28 28 27 27 27 27 27 26 26 27 27 28 28 28 28 29 29 30 30 30 30 31 31 31 31 31 31 31 31 32 32 32 33 33 33 33 34 34 35 34
31 31 31 31 31 32 33 33 33 33 33 33 32 32 31 31 31 31 31 30 29 29 28 28 29 28 28 28 27 27 27 27 27 27 27 26 26 26 27 27 28 29 29 29 29 30 30 30 30 31 31 31 31 31 31 31 31 32 32 32 32 33 33 33 33 33 34 34 34
30 30 30 30 31 31 31 31 31 31 31 31 31 31 30 30 30 31 30 29 28 28 28 28 29 29 29 28 27 27 27 27 27 27 27 27 27 27 27 28 30 30 30 30 30 31 31 31 31 31 31 31 31 31 31 31 31 32 32 32 32 32 33 33 33 33 33 33 33
29 29 29 29 30 30 30 30 31 31 31 31 31 30 30 29 30 30 30 29 28 28 28 28 29 29 29 28 28 27 27 27 27 27 27 27 27 27 27 28 31 31 31 31 31 31 31 32 32 32 32 31 31 31 31 31 32 32 33 33 33 33 33 33 33 32 32 32 33
28 28 28 28 28 28 29 29 30 30 30 30 30 30 30 29 29 30 30 29 29 29 28 28 28 28 28 29 29 29 28 28 28 27 27 27 27 27 27 28 31 31 31 31 32 31 32 33 32 32 32 32 32 32 32 32 33 33 33 33 33 33 33 33 33 33 33 33 34
27 27 27 27 27 28 28 29 30 30 30 30 30 30 30 30 29 30 30 30 29 29 28 28 28 28 28 29 29 29 29 28 28 28 28 27 27 27 28 30 31 31 31 31 32 32 32 33 33 33 33 32 33 33 33 33 33 33 33 33 33 32 32 33 33 33 33 34 34
27 27 27 27 27 28 28 29 30 30 30 30 30 30 29 29 29 29 29 30 29 28 28 28 28 28 28 28 29 29 29 28 28 28 28 28 28 28 29 31 31 31 31 31 31 32 32 32 32 32 32 32 33 33 33 33 33 32 32 32 32 32 32 32 32 32 33 33 33
27 27 27 27 28 28 29 30 30 30 30 29 29 29 29 28 28 28 28 28 29 28 28 28 28 28 28 28 28 29 29 29 28 28 28 28 28 28 29 31 31 31 31 31 31 31 31 32 32 32 32 32 32 32 32 32 32 32 32 32 31 31 31 31 31 32 32 33 33
27 27 27 28 28 28 29 30 29 29 29 29 28 28 28 28 28 28 28 28 28 28 28 28 28 28 28 28 28 28 28 29 28 28 28 28 28 29 30 31 31 31 31 31 31 31 31 31 31 31 31 31 31 31 31 31 31 31 31 31 31 31 31 31 32 32 33 33 33
28 28 28 28 28 29 29 29 29 29 28 28 28 28 27 27 28 28 28 28 28 28 28 28 28 28 28 28 28 28 28 28 28 28 28 27 28 29 31 32 31 31 31 31 31 31 31 31 31 31 31 31 31 31 31 31 31 31 31 31 31 32 32 32 32 33 33 34 34
28 28 28 28 28 29 29 29 28 28 27 27 27 27 27 27 27 27 27 28 28 28 28 28 28 28 28 28 28 27 28 28 28 27 27 27 28 28 29 31 31 31 31 30 30 30 30 30 30 30 30 31 31 31 31 31 31 31 31 31 31 32 32 32 32 33 34 34 34
28 28 28 28 28 29 29 29 28 27 27 27 27 27 27 27 27 27 27 27 27 28 27 27 28 27 27 27 27 27 27 27 27 27 27 27 27 27 29 30 31 31 31 31 30 30 29 29 29 29 30 30 30 30 31 31 31 31 32 32 32 32 33 33 33 34 34 34 34
28 28 29 28 28 28 28 27 27 27 26 26 26 26 26 27 27 27 27 27 27 27 26 26 27 27 27 27 27 27 27 27 27 27 27 27 27 27 28 29 30 30 30 30 31 31 31 31 31 31 31 31 32 32 32 32 32 33 33 33 33 33 33 33 33 33 33 34 33
29 29 29 28 28 27 27 27 26 26 26 26 26 26 26 26 26 26 26 26 26 26 26 26 26 26 27 27 27 27 27 27 27 26 26 26 26 26 26 27 28 29 30 31 33 34 35 34 34 33 32 32 32 32 32 32 32 32 32 33 33 33 32 32 32 32 32 33 33
29 29 29 29 28 27 27 27 26 26 26 26 26 26 26 26 26 25 25 25 25 25 25 26 26 27 27 27 27 26 26 26 26 26 26 25 25 25 25 26 26 27 30 33 34 35 35 35 35 34 34 33 32 32 32 33 32 32 32 33 33 33 32 32 32 33 33 33 35
30 30 29 29 28 27 27 27 26 26 26 25 25 25 25 25 25 25 25 25 25 25 25 25 25 27 28 27 26 26 26 26 26 25 25 25 25 25 25 26 27 29 31 33 35 35 35 35 35 35 34 33 33 33 33 33 33 33 33 33 34 33 33 33 34 34 35 35 35
31 31 30 29 28 28 27 27 26 26 26 25 25 25 25 25 25 25 25 25 25 25 25 25 26 26 27 26 26 26 25 25 26 26 25 25 25 25 25 26 27 29 32 34 34 34 34 34 34 34 34 33 32 33 33 32 33 33 33 34 34 34 34 35 35 35 35 35 34
31 31 30 29 28 28 27 27 27 26 26 26 25 25 25 25 25 25 25 24 24 24 25 26 26 26 26 26 26 26 26 25 25 26 26 25 25 25 25 26 26 28 31 33 33 33 34 34 34 34 34 34 32 32 33 33 33 33 33 34 35 35 35 35 35 35 34 33 32
31 31 30 29 29 28 27 27 27 27 26 26 26 25 25 25 24 24 24 24 24 25 26 27 27 27 26 26 26 26 26 26 26 26 25 24 24 24 25 26 26 28 31 33 33 33 33 33 34 34 34 34 33 33 33 33 33 34 34 34 35 35 35 35 34 33 32 32 32
31 31 30 30 29 28 28 27 27 27 27 26 26 25 25 24 24 24 24 24 25 26 27 27 27 26 26 26 26 26 25 25 25 25 24 24 25 25 25 25 26 28 31 33 33 33 33 33 33 34 34 34 33 33 33 33 33 33 34 34 34 34 34 33 33 32 32 32 32
31 31 31 30 29 29 28 28 27 27 27 26 25 25 24 24 24 25 25 26 26 27 27 27 26 26 26 25 25 25 25 25 25 25 25 25 25 24 24 25 25 27 30 32 32 32 33 33 33 33 34 34 32 33 33 33 33 33 33 33 33 33 33 32 32 32 32 32 33
31 31 31 30 30 29 29 28 27 27 26 25 25 24 24 24 25 25 26 26 26 26 26 26 25 25 25 25 25 24 24 24 24 25 25 26 25 24 24 24 24 26 30 31 32 32 33 33 33 33 33 33 32 32 32 32 32 32 32 33 33 33 33 33 33 32 32 33 33
31 31 31 31 30 30 28 27 27 26 25 24 24 24 24 25 25 26 26 27 27 26 26 26 25 25 25 25 24 24 24 24 24 24 23 23 23 23 23 23 23 26 30 31 32 32 32 33 33 33 33 33 33 32 31 31 31 31 31 32 32 32 32 32 32 32 32 33 33
31 31 31 31 30 28 27 26 25 25 24 24 24 24 25 25 26 26 27 27 27 27 26 26 26 25 25 25 24 24 24 24 22 22 22 22 22 22 23 23 23 27 30 31 31 32 32 32 32 33 32 32 32 31 31 31 31 31 31 31 31 31 32 32 32 32 33 33 33
32 31 30 29 27 26 25 25 25 25 25 25 25 25 25 26 26 26 27 27 27 27 26 26 25 25 24 24 23 23 23 22 22 22 22 22 22 22 22 22 23 26 29 31 31 31 32 32 32 32 32 32 31 31 30 30 30 30 31 31 31 31 32 32 33 34 34 34 34
30 29 27 26 25 25 25 25 25 25 25 25 25 25 26 26 26 26 27 27 27 26 25 25 25 24 24 23 23 23 23 22 22 22 22 22 22 22 22 22 22 25 28 31 31 31 31 32 32 32 31 30 30 30 30 30 30 31 31 31 31 32 33 33 34 34 34 34 34
26 25 24 24 25 25 25 25 25 25 25 25 25 26 26 26 26 26 27 27 26 25 25 25 24 24 23 23 23 23 22 22 22 22 22 22 22 22 22 22 22 24 27 30 31 31 31 31 31 31 31 30 29 29 30 30 31 31 32 33 33 34 34 34 34 34 34 34 35
24 24 24 25 25 25 25 25 25 26 26 26 26 26 26 26 26 26 27 27 26 25 25 24 24 23 23 23 23 22 22 22 22 22 22 21 22 23 24 23 23 24 26 29 30 30 31 31 31 31 31 31 30 30 30 31 32 33 34 34 35 35 35 35 34 34 34 34 36
24 24 25 25 25 25 25 26 26 26 26 26 26 26 26 26 27 27 27 26 25 24 24 23 23 23 23 24 23 22 22 22 22 22 22 22 22 25 26 24 23 23 25 27 29 30 30 31 31 31 31 31 30 30 31 33 34 34 35 35 35 35 34 34 33 33 33 33 35
24 25 25 25 25 25 26 26 26 26 26 27 26 27 27 27 27 26 26 25 24 24 23 23 22 22 23 24 23 22 22 21 22 22 22 22 23 24 25 23 22 22 23 25 28 29 30 31 31 32 32 31 31 31 33 35 35 35 34 34 34 33 33 32 32 32 33 33 34